Weather Roundup
Issued by NWS

Home | Current Version | Previous Version | Text Only | Print | Product List | Glossary On
Versions: 1 2 3 4 5 6 7 8 9 10 11 12 13 14 15 16 17 18 19 20 21 22 23 24 25 26 27 28 29 30 31 32 33 34 35 36 37 38 39 40 41 42 43 44 45 46 47 48 49 50
000
NZUS93 KARX 211110
HRRWXR

CURRENT HOURLY OBSERVATIONS ACROSS
MUCH OF THE UPPER MISSISSIPPI VALLEY
NATIONAL WEATHER SERVICE LA CROSSE WI
600 AM CDT SUN SEP 21 2014


...SOUTHEAST MINNESOTA...


CITY           SKY/WX    TMP DP  RH WIND       PRES   REMARKS
ROCHESTER      CLEAR     51  47  86 NW17G24   29.92R
ROCHESTER/MAYO FAIR      53  47  81 W18G28    29.92R
WINONA         CLOUDY    55  48  76 NW17      29.87R
AUSTIN         CLOUDY    52  48  87 NW15G23   29.95R
ALBERT LEA     PTCLDY    54  50  87 NW9G18    29.98R
DODGE CENTER   PTCLDY    52  50  93 NW14      29.94R
PRESTON        PTCLDY    52  51  98 NW15G24   29.91R
OWATONNA       CLEAR     52  48  87 NW12      29.97R
FARIBAULT      CLEAR     55  46  71 NW8       29.98R
$$

...ELSEWHERE IN MINNESOTA...


CITY           SKY/WX    TMP DP  RH WIND       PRES   REMARKS
MINNEAPOLIS    CLOUDY    54  46  74 NW18G26   29.96R
INTNL FALLS    CLOUDY    50  48  93 N6        30.00R
DULUTH         CLOUDY    53  48  83 N8        29.93R
RED WING       CLOUDY    55  46  71 NW10      29.91R
REDWOOD FALLS  CLEAR     52  48  86 NW9G18    30.05R
MANKATO        CLEAR     52  45  76 NW12      30.00R
WORTHINGTON    CLEAR     50  43  76 NW9       30.09R
FAIRMONT       CLEAR     54  43  66 NW13G20   30.03R
$$

...SOUTHWEST WISCONSIN...


CITY           SKY/WX    TMP DP  RH WIND       PRES   REMARKS
LA CROSSE      MOCLDY    58  47  66 NW22G29   29.85R
PRAIRIE DU CHI PTCLDY    56  50  78 W12G18    29.86R
BOSCOBEL       PTCLDY    57  49  74 W9        29.84R
LONE ROCK      MOCLDY    60  49  66 W14G22    29.81R
PLATTEVILLE    CLEAR     55  52  92 W13       29.85R
FORT MC COY    CLOUDY    55  46  70 W14G23    29.83R
CAMP DOUGLAS   CLOUDY    54  52  94 NW16G24   29.80R
VIROQUA        CLOUDY    53  48  83 NW14G22   29.84R
WIS DELLS      CLOUDY    55  47  74 W8G21     29.77R
$$

...ELSEWHERE IN WISCONSIN...


CITY           SKY/WX    TMP DP  RH WIND       PRES   REMARKS
MILWAUKEE      PTCLDY    57  50  77 W13G23    29.72S
MADISON        CLOUDY    56  50  80 W12G17    29.76S
GREEN BAY      RAIN      56  54  93 NW13      29.68R
EAU CLAIRE     CLOUDY    53  49  86 NW12      29.85R
BLACK RVR FLS  CLOUDY    55  47  75 NW12G21   29.81R
MEDFORD        DRIZZLE   52  51  96 NW8       29.78R
WAUSAU         LGT RAIN  53  52  96 NW9       29.74R
WIS RAPIDS     LGT RAIN  53  51  93 NW13      29.78R
MARSHFIELD     LGT RAIN  53  51  93 NW9       29.78R FOG
RICE LAKE      CLOUDY    52  50  92 NW9G16    29.88R
$$

...NORTHEAST IOWA...


CITY           SKY/WX    TMP DP  RH WIND       PRES   REMARKS
WATERLOO       CLEAR     55  49  80 NW12      29.93R
DUBUQUE        CLEAR     54  52  93 W16G23    29.86S
DECORAH        CLOUDY    54  50  87 NW10G18   29.89R
MASON CITY     CLEAR     52  48  86 NW14      29.99R
CHARLES CITY   CLEAR     54  50  87 NW15G23   29.94R
OELWEIN        CLEAR     54  50  87 W13       29.92R
$$

...ELSEWHERE IN IOWA...


CITY           SKY/WX    TMP DP  RH WIND       PRES   REMARKS
DES MOINES     CLEAR     58  48  69 NW14      30.01R
IOWA CITY        N/A     56  53  90 W13       29.94S
FORT DODGE     CLEAR     54  45  71 NW6       30.04R
MARSHALLTOWN   CLEAR     53  49  86 W10       29.98R
CEDAR RAPIDS   CLEAR     54  52  93 W13       29.93R
$$

...NORTHERN ILLINOIS...


CITY           SKY/WX    TMP DP  RH WIND       PRES   REMARKS
CHICAGO-OHARE  CLEAR     58  51  78 W12G23    29.79R
DUPAGE         CLEAR     56  52  86 W13       29.81R
CHICAGO-MIDWAY PTCLDY    60  54  80 W13       29.80R
MOLINE         CLEAR     57  52  83 W12       29.90S
ROCKFORD       CLEAR     55  51  86 W13       29.84S
STERLING       CLEAR     54  50  87 W8        29.87S
PEORIA         CLEAR     58  51  78 W6        29.93R
$$

NOTE: "FAIR" INDICATES FEW OR NO CLOUDS BELOW 12,000 FEET WITH NO
SIGNIFICANT WEATHER AND/OR OBSTRUCTIONS TO VISIBILITY. WIND
SPEEDS ARE IN MILES-PER-HOUR.



USA.gov is the U.S. government's official web portal to all federal, state and local government web resources and services.